VK1ET-13 Weather Reports


time (UTC)temp
F
wind
direction
speed
knots
gust
knots
rain 1hr
in
rain 24hr
in
rain mn
in
humidity
%
barometer
mb
20260902213035 57 253 7.0 11.3 0.00 0.00 0.00 81 1009.7
20260902212041 55 257 4.3 8.7 0.00 0.00 0.00 87 1009.8
20260902211019 55 282 4.3 7.0 0.00 0.00 0.00 89 1009.9
20260902210027 55 320 3.5 6.1 0.00 0.00 0.00 91 1009.8
20260902204029 54 324 1.7 3.5 0.00 0.00 0.00 95 1009.5
20260902203035 53 14 0.9 3.5 0.00 0.00 0.00 96 1009.5
20260902202036 53 293 0.9 1.7 0.00 0.00 0.00 96 1009.4
20260902201031 53 304 0.9 2.6 0.00 0.00 0.00 96 1009.4
20260902200032 53 358 0.9 2.6 0.00 0.00 0.00 96 1009.3
20260902195021 53 23 0.0 1.7 0.00 0.00 0.00 96 1009.1
20260902194018 53 354 0.9 2.6 0.00 0.00 0.00 96 1008.9
20260902193026 53 326 0.9 3.5 0.00 0.00 0.00 96 1008.9
20260902192033 53 307 1.7 5.2 0.00 0.00 0.00 96 1009.0
20260902191021 53 355 1.7 4.3 0.00 0.00 0.00 97 1008.9
20260902190030 53 338 1.7 3.5 0.00 0.00 0.00 96 1008.7
20260902185017 53 4 1.7 4.3 0.00 0.00 0.00 96 1008.4
20260902184032 53 8 3.5 6.1 0.00 0.00 0.00 96 1008.2
20260902183032 53 357 1.7 3.5 0.00 0.00 0.00 96 1008.6
20260902182020 54 359 1.7 3.5 0.00 0.00 0.00 96 1008.5
20260902181028 54 3 1.7 3.5 0.00 0.00 0.00 95 1008.5
20260902180036 54 7 2.6 5.2 0.00 0.00 0.00 95 1008.9
20260902175027 54 351 2.6 5.2 0.00 0.00 0.00 95 1008.9
20260902174039 54 257 1.7 3.5 0.00 0.00 0.00 96 1008.9
20260902173020 54 302 0.9 3.5 0.00 0.00 0.00 96 1008.7
20260902172028 54 0 0.9 2.6 0.00 0.00 0.00 96 1008.9
20260902171016 54 8 1.7 4.3 0.00 0.00 0.00 96 1009.0
20260902170031 54 2 1.7 4.3 0.00 0.00 0.00 96 1009.1
20260902165033 54 7 2.6 5.2 0.00 0.00 0.00 96 1009.7
20260902164020 54 1 1.7 5.2 0.00 0.00 0.00 95 1010.1
20260902163030 54 354 1.7 4.3 0.00 0.00 0.00 95 1010.3
20260902162017 54 5 2.6 5.2 0.00 0.00 0.00 95 1010.4
20260902161032 54 7 1.7 3.5 0.00 0.00 0.00 95 1010.4
20260902160033 54 335 1.7 3.5 0.00 0.00 0.00 94 1010.9
20260902155022 54 12 2.6 4.3 0.00 0.00 0.00 94 1010.7
20260902154029 54 13 1.7 3.5 0.00 0.00 0.00 94 1011.2
20260902153017 54 350 2.6 5.2 0.00 0.00 0.00 94 1011.4
20260902152024 54 360 0.9 3.5 0.00 0.00 0.00 94 1011.1
20260902151030 54 356 0.9 3.5 0.00 0.00 0.00 94 1010.7
20260902150016 55 325 0.9 1.7 0.00 0.00 0.00 93 1011.0
20260902145023 55 8 0.9 1.7 0.00 0.00 0.00 93 1010.9
20260902144039 55 335 0.9 2.6 0.00 0.00 0.00 93 1011.4
20260902143036 55 336 0.9 2.6 0.00 0.00 0.00 92 1011.4
20260902142022 55 27 0.9 3.5 0.00 0.00 0.00 92 1011.9
20260902141028 55 356 0.9 2.6 0.00 0.00 0.00 91 1012.2
20260902140033 55 336 0.9 3.5 0.00 0.00 0.00 91 1012.2
20260902135019 56 352 1.7 4.3 0.00 0.00 0.00 89 1012.6
20260902134024 56 323 1.7 4.3 0.00 0.00 0.00 88 1012.9
20260902133030 57 286 3.5 7.0 0.00 0.00 0.00 86 1013.1
20260902132036 57 317 4.3 11.3 0.00 0.00 0.00 85 1013.3
20260902131034 57 325 3.5 7.0 0.00 0.00 0.00 86 1013.2
20260902130027 57 328 2.6 5.2 0.00 0.00 0.00 84 1013.2
20260902125021 58 305 3.5 5.2 0.00 0.00 0.00 81 1013.2
20260902123522 56 309 2.6 4.3 0.00 0.00 0.00 83 1013.0
20260902123036 55 297 0.9 2.6 0.00 0.00 0.00 85 1013.0
20260902120530 56 67 0.0 1.7 0.00 0.00 0.00 83 1013.2
20260902115531 57 151 0.0 0.9 0.00 0.00 0.00 82 1013.0
20260902114530 57 340 0.9 1.7 0.00 0.00 0.00 81 1013.1
20260902113519 57 138 0.9 0.9 0.00 0.00 0.00 81 1013.3
20260902113501 57 214 0.0 1.7 0.00 0.00 0.00 81 1013.3
20260902101048 63 295 4.3 6.1 0.00 0.00 0.00 75 1013.8
20260902100058 63 311 2.6 4.3 0.00 0.00 0.00 74 1013.5
20260902000537 63 314 5.2 10.4 0.00 0.00 0.00 67 1016.4
20260901234527 63 315 4.3 11.3 0.00 0.00 0.00 69 1016.2
20260901233524 62 315 4.3 8.7 0.00 0.00 0.00 70 1016.2
20260901231519 61 321 2.6 8.7 0.00 0.00 0.00 71 1016.0
20260901231030 61 337 5.2 11.3 0.00 0.00 0.00 71 1016.1
20260901225519 61 307 5.2 11.3 0.00 0.00 0.00 71 1016.2
20260901224526 60 304 7.8 8.7 0.00 0.00 0.00 72 1016.4
20260901224503 60 340 4.3 9.6 0.00 0.00 0.00 72 1016.4
20260901223531 60 331 2.6 3.5 0.00 0.00 0.00 73 1016.3
20260901223021 60 318 5.2 8.7 0.00 0.00 0.00 72 1016.3
20260901221530 60 308 6.1 11.3 0.00 0.00 0.00 73 1016.2
20260901220024 59 312 3.5 7.8 0.00 0.00 0.00 74 1016.1
20260901215034 60 316 3.5 11.3 0.00 0.00 0.00 74 1015.8
20260901214029 59 326 4.3 9.6 0.00 0.00 0.00 74 1015.7